NOAA 16 DEB, 41146

Orbit data source: Space-Track

NOAA 16 DEB, 41146 is space debris in SSO originally from a launch on Thu, 21 Sep 2000 UTC launched from the Air Force Western Test Range (AFWTR). Debris objects in space refer to the collection of defunct objects orbiting the Earth. Examples of debris include non-operational satellites, rocket bodies, and fragments generated from explosions, collisions, or faulty payload assembly.

Loading next visibility...
Identifier
41146, 2000-055CD
Orbit
SSO
Country
Flag of USUS
Related business
Manufacturer
Unknown
Mission
Spacecraft
Bus & Motor
Unknown
Mass
Unknown
Launch date (UTC)
2000-09-21 (26 years ago)
Launch vehicle
Unknown
Launch site
Air Force Western Test Range (AFWTR)
Object type
Payload
Rocket body
Debris
Shape & HBR
Unknown shape, 0.1 m
Radar Cross Section
Small (<0.1 m²)

Expand to show TLE details & history
Last TLE update: 7 hours ago

TLE from 7 hours ago
0 NOAA 16 DEB
1 41146U 00055CD  26120.13564123  .00016267  00000-0  37323-2 0  9994
2 41146  98.8271 245.2365 0017909 231.8944 128.0637 14.55499719539498
Epoch: 2026-04-30T03:15Z
TLE epoch observation values (Epoch: 2026-04-30T03:15:19.402Z)
Latitude
-0.00004°
Longitude
-21.68093°
Altitude
718.541 km
Speed
7.492 km/s
True Right ascension
16h 20m 56s
True Declination
0° 00' 00"
Sunlit
Object was in full shadow at epoch
Visualization orbit readout
Latitude
Unknown
Longitude
Unknown
Altitude
Unknown
Speed
Unknown
Apparent Right ascension
Unknown
Apparent Declination
Unknown
Sunlit
N/A
Visualization observer readout
Local Sidereal Time
17:46:30
Azimuth
Unknown
Elevation
Unknown
Doppler factor
Unknown
Orbital elements
Apogee altitude
717.544 km
Perigee altitude
692.175 km
Semi-major axis
7,082.996 km
Eccentricity
0.00179
Inclination
98.8271°
RAAN
245.2365°
Arg. of periapsis
231.8944°
True anomaly
128.22505°
Mean anomaly
128.0637°
Eccentric anomaly
128.1444°
Mean motion
3.64097 °/min
Orbital period
98.87 mins
BSTAR
0.0037323
Loading maneuver chart data...
Computing Atmospheric mass density...
Loading historical data...
Loading historical data...
Loading historical data...
Loading historical data...
Loading historical data...
Loading historical data...
Loading historical data...

Documentation

Showing up to 5 results
|